Flag for Dominican Republic Weather past 2 weeks in Punta Cana, Dominican Republic

Now
82 °F

Passing clouds.


Feels Like: 91 °F
Forecast: 80 / 89 °F
Wind: 12 mph from Southeast

Location: Punta Cana

Current Time: Aug 28, 2014 at 1:47:21 AM

Latest Report: Aug 28, 2014 at 1:00 AM


Visibility: N/A

Pressure: 30.01 "Hg

Humidity: 84%

Dew point: 77 °F

Location of Punta CanaLocation

Historic Weather in Punta Cana — Graph

°F

Punta Cana temperature yesterday

Maximum temperature yesterday: 88 °F (at 12:00 PM)
Minimum temperature yesterday: 77 °F (at 7:00 AM)
Average temperature yesterday: 83 °F

Past Weeks' High & Low Weather Summary

 TemperatureHumidityPressure
High90 °F (Aug 13, 2:00 PM)100% (Aug 21, 7:00 AM)30.09 "Hg (Aug 21, 7:00 AM)
Low73 °F (Aug 20, 3:00 AM)59% (Aug 13, 11:00 AM)29.77 "Hg (Aug 22, 4:00 PM)
Average83 °F81%29.97 "Hg
* Reported Aug 12 11:00 PM — Aug 27 11:00 PM, Punta Cana, Weather by CustomWeather, © 2014

Note: Actual official high and low records may vary slightly from our data, if they occured in-between our weather recording intervals... More about our weather records

Advertising

Punta Cana weather history for previous 24 hours

 ConditionsComfort  
Time TempWeatherWind HumidityBarometerVisibility
11:00 PM
Aug 27
82 °FPassing clouds.12 mph84%30.04 "HgN/A
10:00 PM82 °FPassing clouds.9 mph89%30.04 "HgN/A
9:00 PM82 °FPassing clouds.9 mph84%30.01 "HgN/A
8:00 PM82 °FPassing clouds.12 mph84%30.01 "HgN/A
7:00 PM82 °FPassing clouds.7 mph84%30.01 "HgN/A
6:00 PM84 °FPartly sunny.7 mph84%29.98 "HgN/A
5:00 PM86 °FScattered clouds.9 mph79%29.98 "HgN/A
4:00 PM86 °FScattered clouds.8 mph79%29.98 "HgN/A
3:00 PM86 °FPassing clouds.7 mph75%29.98 "HgN/A
2:00 PM88 °FPassing clouds.9 mph70%30.01 "HgN/A
1:00 PM88 °FPassing clouds.5 mph75%30.01 "HgN/A
12:00 PM88 °FPassing clouds.7 mph70%30.04 "HgN/A
11:00 AM86 °FPassing clouds.5 mph75%30.04 "HgN/A
10:00 AM86 °FPassing clouds.6 mph75%30.04 "HgN/A
9:00 AM84 °FPassing clouds.5 mph79%30.04 "HgN/A
8:00 AM84 °FPassing clouds.5 mph79%30.01 "HgN/A
7:00 AM77 °FPassing clouds.No wind94%29.98 "HgN/A
6:00 AM79 °FPassing clouds.No wind89%29.98 "HgN/A
5:00 AM81 °FPassing clouds.5 mph84%29.98 "HgN/A
4:00 AM81 °FPassing clouds.7 mph84%29.98 "HgN/A
3:00 AM81 °FPassing clouds.7 mph84%29.98 "HgN/A
2:00 AM81 °FPassing clouds.7 mph84%29.98 "HgN/A
1:00 AM81 °FPassing clouds.9 mph84%30.01 "HgN/A
Weather by CustomWeather, © 2014

See weather overviewHow to use our weather pages